Tiempo cada hora Alitub

Hoy, 28 Julio, Miércoles

Tiempo Temperatura Precipitaciones Viento Presión Humedad
00:00 +23°C° 0 mm 2 mps 764 mmHg 58%
01:00 +21°C° 0 mm 2 mps 764 mmHg 59%
02:00 +21°C° 0 mm 2 mps 764 mmHg 61%
03:00 +21°C° 0 mm 2 mps 764 mmHg 63%
04:00 +21°C° 0 mm 2 mps 764 mmHg 63%
05:00 +21°C° 0 mm 2 mps 764 mmHg 64%
06:00 +21°C° 0 mm 2 mps 764 mmHg 65%
07:00 +24°C° 0 mm 2 mps 763 mmHg 59%
08:00 +26°C° 0 mm 3 mps 763 mmHg 53%
09:00 +28°C° 0 mm 3 mps 763 mmHg 48%
10:00 +30°C° 0 mm 2 mps 763 mmHg 43%
11:00 +31°C° 0 mm 2 mps 762 mmHg 39%
12:00 +33°C° 0 mm 1 mps 762 mmHg 34%
13:00 +34°C° 0 mm 1 mps 762 mmHg 31%
14:00 +34°C° 0 mm 1 mps 761 mmHg 28%
15:00 +35°C° 0 mm 1 mps 761 mmHg 25%
16:00 +35°C° 0 mm 2 mps 761 mmHg 27%
17:00 +35°C° 0 mm 2 mps 761 mmHg 29%
18:00 +34°C° 0 mm 2 mps 760 mmHg 30%
19:00 +32°C° 0 mm 2 mps 760 mmHg 36%
20:00 +30°C° 0 mm 2 mps 761 mmHg 41%
21:00 +28°C° 0 mm 2 mps 761 mmHg 46%
22:00 +27°C° 0 mm 2 mps 761 mmHg 48%
23:00 +27°C° 0 mm 2 mps 761 mmHg 49%

Mañana, 29 Julio, Jueves

Tiempo Temperatura Precipitaciones Viento Presión Humedad
00:00 +26°C° 0 mm 2 mps 761 mmHg 51%
01:00 +26°C° 0 mm 2 mps 761 mmHg 52%
02:00 +25°C° 0 mm 2 mps 761 mmHg 53%
03:00 +25°C° 0 mm 2 mps 760 mmHg 54%
04:00 +25°C° 0 mm 2 mps 760 mmHg 55%
05:00 +25°C° 0 mm 2 mps 760 mmHg 56%
06:00 +24°C° 0 mm 2 mps 760 mmHg 56%
07:00 +27°C° 0 mm 2 mps 760 mmHg 50%
08:00 +29°C° 0 mm 2 mps 760 mmHg 43%
09:00 +31°C° 0 mm 1 mps 760 mmHg 36%
10:00 +34°C° 0 mm 2 mps 760 mmHg 32%
11:00 +35°C° 0 mm 2 mps 760 mmHg 27%
12:00 +36°C° 0 mm 3 mps 759 mmHg 23%
13:00 +37°C° 0 mm 3 mps 759 mmHg 22%
14:00 +37°C° 0 mm 2 mps 759 mmHg 21%
15:00 +37°C° 0 mm 2 mps 758 mmHg 20%
16:00 +37°C° 0 mm 2 mps 758 mmHg 21%
17:00 +37°C° 0 mm 2 mps 758 mmHg 21%
18:00 +36°C° 0 mm 2 mps 758 mmHg 22%
19:00 +34°C° 0 mm 2 mps 758 mmHg 26%
20:00 +31°C° 0 mm 2 mps 758 mmHg 30%
21:00 +29°C° 0 mm 1 mps 758 mmHg 33%
22:00 +28°C° 0 mm 1 mps 758 mmHg 35%
23:00 +27°C° 0 mm 1 mps 758 mmHg 37%

Pasado mañana, 30 Julio, Viernes

Tiempo Temperatura Precipitaciones Viento Presión Humedad
00:00 +27°C° 0 mm 1 mps 758 mmHg 39%
01:00 +26°C° 0 mm 1 mps 758 mmHg 40%
02:00 +26°C° 0 mm 1 mps 758 mmHg 42%
03:00 +25°C° 0 mm 1 mps 758 mmHg 43%
04:00 +25°C° 0 mm 1 mps 758 mmHg 45%
05:00 +25°C° 0 mm 1 mps 758 mmHg 47%
06:00 +25°C° 0 mm 1 mps 758 mmHg 48%
07:00 +28°C° 0 mm 1 mps 758 mmHg 43%
08:00 +30°C° 0 mm 2 mps 758 mmHg 37%
09:00 +34°C° 0 mm 2 mps 758 mmHg 31%
10:00 +35°C° 0 mm 2 mps 758 mmHg 28%
11:00 +36°C° 0 mm 3 mps 758 mmHg 25%
12:00 +38°C° 0 mm 3 mps 757 mmHg 22%
13:00 +38°C° 0 mm 3 mps 757 mmHg 21%
14:00 +39°C° 0 mm 3 mps 757 mmHg 20%
15:00 +39°C° 0 mm 3 mps 756 mmHg 20%
16:00 +39°C° 0 mm 3 mps 756 mmHg 21%
17:00 +38°C° 0 mm 2 mps 756 mmHg 22%
18:00 +38°C° 0 mm 2 mps 755 mmHg 23%
19:00 +35°C° 0 mm 2 mps 756 mmHg 30%
20:00 +32°C° 0 mm 2 mps 756 mmHg 37%
21:00 +30°C° 0 mm 2 mps 756 mmHg 43%
22:00 +29°C° 0 mm 2 mps 756 mmHg 47%
23:00 +28°C° 0 mm 2 mps 756 mmHg 51%

31 Julio, Sábado

Tiempo Temperatura Precipitaciones Viento Presión Humedad
00:00 +27°C° 0 mm 2 mps 756 mmHg 55%
01:00 +27°C° 0 mm 2 mps 756 mmHg 55%
02:00 +26°C° 0 mm 2 mps 756 mmHg 56%
03:00 +26°C° 0 mm 2 mps 756 mmHg 56%
04:00 +26°C° 0 mm 1 mps 756 mmHg 56%
05:00 +26°C° 0 mm 1 mps 756 mmHg 56%
06:00 +26°C° 0 mm 1 mps 757 mmHg 56%
07:00 +28°C° 0 mm 1 mps 757 mmHg 49%
08:00 +31°C° 0 mm 1 mps 757 mmHg 42%
09:00 +33°C° 0 mm 1 mps 757 mmHg 35%
10:00 +35°C° 0 mm 1 mps 756 mmHg 30%
11:00 +36°C° 0 mm 1 mps 756 mmHg 25%
12:00 +39°C° 0 mm 2 mps 756 mmHg 21%
13:00 +39°C° 0 mm 2 mps 756 mmHg 20%
14:00 +40°C° 0 mm 1 mps 755 mmHg 19%
15:00 +40°C° 0 mm 1 mps 755 mmHg 18%
16:00 +40°C° 0 mm 1 mps 755 mmHg 18%
17:00 +40°C° 0 mm 1 mps 755 mmHg 19%
18:00 +39°C° 0 mm 1 mps 755 mmHg 19%
19:00 +37°C° 0 mm 2 mps 755 mmHg 23%
20:00 +35°C° 0 mm 2 mps 756 mmHg 27%
21:00 +31°C° 0 mm 2 mps 756 mmHg 30%
22:00 +30°C° 0 mm 2 mps 756 mmHg 34%
23:00 +30°C° 0 mm 2 mps 756 mmHg 39%

1 Agosto, Domingo

Tiempo Temperatura Precipitaciones Viento Presión Humedad
00:00 +29°C° 0 mm 2 mps 756 mmHg 43%
01:00 +28°C° 0 mm 2 mps 756 mmHg 43%
02:00 +28°C° 0 mm 2 mps 756 mmHg 44%
03:00 +27°C° 0 mm 1 mps 756 mmHg 45%
04:00 +27°C° 0 mm 2 mps 756 mmHg 44%
05:00 +27°C° 0 mm 2 mps 756 mmHg 44%
06:00 +27°C° 0 mm 2 mps 757 mmHg 44%
07:00 +30°C° 0 mm 2 mps 757 mmHg 37%
08:00 +32°C° 0 mm 2 mps 756 mmHg 31%
09:00 +36°C° 0 mm 2 mps 756 mmHg 24%
10:00 +37°C° 0 mm 2 mps 756 mmHg 22%
11:00 +39°C° 0 mm 2 mps 756 mmHg 19%
12:00 +41°C° 0 mm 2 mps 756 mmHg 17%
13:00 +41°C° 0 mm 2 mps 755 mmHg 16%
14:00 +41°C° 0 mm 2 mps 755 mmHg 15%
15:00 +42°C° 0 mm 2 mps 755 mmHg 14%
16:00 +42°C° 0 mm 2 mps 755 mmHg 15%
17:00 +41°C° 0 mm 2 mps 754 mmHg 15%
18:00 +41°C° 0 mm 2 mps 754 mmHg 15%
19:00 +38°C° 0 mm 3 mps 755 mmHg 19%
20:00 +36°C° 0 mm 3 mps 755 mmHg 23%
21:00 +33°C° 0 mm 3 mps 755 mmHg 27%
22:00 +31°C° 0 mm 3 mps 755 mmHg 32%
23:00 +31°C° 0 mm 3 mps 755 mmHg 36%

2 Agosto, Lunes

Tiempo Temperatura Precipitaciones Viento Presión Humedad
00:00 +30°C° 0 mm 4 mps 755 mmHg 41%
01:00 +29°C° 0 mm 3 mps 755 mmHg 41%
02:00 +28°C° 0 mm 2 mps 755 mmHg 42%
03:00 +27°C° 0 mm 2 mps 755 mmHg 42%
04:00 +28°C° 0 mm 1 mps 755 mmHg 41%
05:00 +28°C° 0 mm 1 mps 755 mmHg 39%
06:00 +28°C° 0 mm 1 mps 755 mmHg 38%
07:00 +30°C° 0 mm 1 mps 755 mmHg 33%
08:00 +33°C° 0 mm 1 mps 756 mmHg 28%
09:00 +36°C° 0 mm 1 mps 756 mmHg 24%
10:00 +37°C° 0 mm 1 mps 755 mmHg 22%
11:00 +40°C° 0 mm 1 mps 755 mmHg 20%
12:00 +39°C° 0 mm 0 mps 755 mmHg 18%
13:00 +42°C° 0 mm 1 mps 754 mmHg 17%
14:00 +42°C° 0 mm 1 mps 754 mmHg 16%
15:00 +43°C° 0 mm 2 mps 754 mmHg 15%
16:00 +43°C° 0 mm 3 mps 753 mmHg 17%
17:00 +42°C° 0 mm 4 mps 753 mmHg 19%
18:00 +41°C° 0 mm 5 mps 753 mmHg 20%
19:00 +38°C° 0 mm 4 mps 754 mmHg 26%
20:00 +35°C° 0 mm 4 mps 754 mmHg 31%
21:00 +33°C° 0 mm 3 mps 754 mmHg 36%
22:00 +33°C° 0.1 mm 3 mps 754 mmHg 37%
23:00 +31°C° 0.1 mm 2 mps 754 mmHg 38%
Mostrar más

Necesitamos Su Consentimiento

Meteoprog y nuestros Proveedores de Servicios pueden almacenar y acceder a sus datos personales como cookies, identificadores de dispositivo u otras tecnologías similares de su dispositivo y procesar dichos datos para personalizar contenido y anuncios, además de ofrecer funciones de redes sociales y analizar el tráfico.

  • Almacenar y/o acceder a información en su dispositivo

    Se puede almacenar o acceder a cookies, identificadores de dispositivo u otra información de su dispositivo para los fines anteriormente indicados.

  • Anuncios y contenido personalizados, medición de anuncios y contenido, percepciones del público, y desarrollo de productos

    Los anuncios y el contenido pueden personalizarse en base a su perfil. Se pueden añadir más datos para personalizar mejor los anuncios y contenidos. Se puede medir el rendimiento de los anuncios y contenidos. Se puede obtener la percepción sobre el público que ha visto los anuncios y contenidos. Dichos datos pueden usarse para desarrollar o mejorar la experiencia del usuario, sistemas y software.

Al hacer clic en ‘Estoy De Acuerdo’ usted permitirá el uso de las cookies, identificadores de dispositivo, balizas web u otras tecnologías similares indicadas. Su configuración puede cambiarse desde el navegador de su dispositivo.

Para ciertos fines, los intereses legítimos pueden ser considerados por encima del consentimiento. Puede leer más sobre ello en nuestra Política de Privacidad y Cookies.